This is the latest recevied weather packets stored in our database for station/object KI2K. If no packets are shown the sender has not sent any weather packets the latest 10 day(s).
| Time | Temp. | Humidity | Pressure | Rain* | Wind** | Luminosity | Snow |
|---|---|---|---|---|---|---|---|
| 1778033601 | 8.33° C | 99% | 1008 hPa | 8.89 mm | - | 0 W/m² | - |
| 1778033297 | 8.33° C | 99% | 1008.1 hPa | 11.94 mm | - | 0 W/m² | - |
| 1778032995 | 8.33° C | 99% | 1008.5 hPa | 12.7 mm | - | 0 W/m² | - |
| 1778032693 | 8.33° C | 99% | 1009.2 hPa | 6.1 mm | - | 0 W/m² | - |
| 1778032390 | 8.33° C | 99% | 1009.1 hPa | 1.78 mm | - | 0 W/m² | - |
| 1778032087 | 8.33° C | 99% | 1008.5 hPa | 1.27 mm | - | 0 W/m² | - |
| 1778031784 | 8.33° C | 99% | 1007.5 hPa | 1.27 mm | - | 0 W/m² | - |
| 1778031481 | 8.33° C | 99% | 1007.3 hPa | 1.78 mm | - | 0 W/m² | - |
| 1778030874 | 8.33° C | 99% | 1007 hPa | 6.1 mm | - | 0 W/m² | - |
| 1778030571 | 8.33° C | 99% | 1007.1 hPa | 3.05 mm | - | 0 W/m² | - |
| 1778030268 | 8.33° C | 99% | 1007.6 hPa | 0 mm | - | 0 W/m² | - |
| 1778029964 | 8.33° C | 99% | 1007.7 hPa | 0 mm | - | 0 W/m² | - |
| 1778029663 | 8.33° C | 99% | 1007.5 hPa | 0 mm | - | 0 W/m² | - |
| 1778029360 | 8.33° C | 99% | 1007.3 hPa | 1.78 mm | - | 0 W/m² | - |
| 1778029057 | 8.33° C | 99% | 1007.3 hPa | 1.78 mm | - | 0 W/m² | - |
| 1778028754 | 8.33° C | 99% | 1007.4 hPa | 0 mm | - | 0 W/m² | - |
| 1778028449 | 7.78° C | 99% | 1007.8 hPa | 1.78 mm | - | 0 W/m² | - |
| 1778028147 | 7.78° C | 99% | 1007.7 hPa | 1.78 mm | - | 0 W/m² | - |
| 1778027843 | 7.78° C | 99% | 1007.4 hPa | 1.27 mm | - | 0 W/m² | - |
| 1778027540 | 7.78° C | 99% | 1007.8 hPa | 3.05 mm | - | 0 W/m² | - |
| 1778027236 | 7.78° C | 99% | 1007.6 hPa | 3.05 mm | - | 2 W/m² | - |
| 1778026932 | 7.78° C | 99% | 1007.7 hPa | 1.27 mm | - | 1 W/m² | - |
| 1778026628 | 7.78° C | 99% | 1008 hPa | 1.78 mm | - | 0 W/m² | - |
| 1778026326 | 7.78° C | 99% | 1007.9 hPa | 1.78 mm | - | 1 W/m² | - |
| 1778026022 | 8.33° C | 99% | 1007.9 hPa | 1.27 mm | - | 2 W/m² | - |
* Rain latest hour (hover to see other rain measurements)
** Current wind speed in m/s (hover to see current wind gust speed)